FW4639 Weather Reports


Display with metric or nautical units.
time (UTC)temp
F
wind
direction
speed
MPH
gust
MPH
rain 1hr
in
rain 24hr
in
rain mn
in
humidity
%
barometer
mb
20260510173013 83 7 0.0 7.0 0.00 0.00 0.00 37 1015.7
20260510171511 83 58 0.0 1.0 0.00 0.00 0.00 38 1015.8
20260510170009 83 286 0.0 1.0 0.00 0.00 0.00 39 1015.8
20260510164508 83 36 0.0 2.0 0.00 0.00 0.00 40 1016.0
20260510163007 82 303 0.0 1.0 0.00 0.00 0.00 44 1016.1
20260510161504 82 343 0.0 4.0 0.00 0.00 0.00 43 1016.1
20260510160101 81 345 0.0 2.0 0.00 0.00 0.00 48 1016.2
20260510154601 79 165 0.0 1.0 0.00 0.00 0.00 52 1016.4
20260510153055 78 252 0.0 0.0 0.00 0.00 0.00 54 1016.6
20260510151554 79 55 0.0 2.0 0.00 0.00 0.00 54 1016.4
20260510150055 78 94 0.0 1.0 0.00 0.00 0.00 57 1016.4
20260510144606 78 89 0.0 1.0 0.00 0.00 0.00 55 1016.3
20260510143056 76 257 0.0 0.0 0.00 0.00 0.00 62 1016.3
20260510141541 75 257 0.0 2.0 0.00 0.00 0.00 65 1016.3
20260510140039 73 259 0.0 2.0 0.00 0.00 0.00 68 1016.4
20260510134543 73 51 0.0 1.0 0.00 0.00 0.00 73 1016.4
20260510133032 71 84 0.0 2.0 0.00 0.00 0.00 78 1016.2
20260510131527 69 335 0.0 4.0 0.00 0.00 0.00 83 1016.2
20260510130023 67 68 0.0 0.0 0.00 0.00 0.00 91 1015.9
20260510124519 64 68 0.0 0.0 0.00 0.00 0.00 96 1015.7
20260510123015 62 69 0.0 0.0 0.00 0.00 0.00 96 1015.7
20260510121514 62 68 0.0 0.0 0.00 0.00 0.00 97 1015.5
20260510120015 62 68 0.0 0.0 0.00 0.00 0.00 97 1015.4
20260510114512 61 69 0.0 0.0 0.00 0.00 0.00 97 1015.3
20260510113010 61 68 0.0 0.0 0.00 0.00 0.00 97 1015.1
20260510111508 60 68 0.0 0.0 0.00 0.00 0.00 97 1014.8
20260510110010 60 69 0.0 0.0 0.00 0.00 0.00 97 1014.6
20260510104505 59 69 0.0 0.0 0.00 0.00 0.00 96 1014.5
20260510103003 59 68 0.0 0.0 0.00 0.00 0.00 96 1014.4
20260510101601 59 69 0.0 0.0 0.00 0.00 0.00 96 1014.1
20260510094558 60 68 0.0 0.0 0.00 0.00 0.00 96 1013.7
20260510093054 60 69 0.0 0.0 0.00 0.00 0.00 96 1013.4
20260510091555 60 68 0.0 0.0 0.00 0.00 0.00 96 1013.3
20260510090052 60 68 0.0 0.0 0.00 0.00 0.00 96 1013.2
20260510084550 60 68 0.0 0.0 0.00 0.00 0.00 96 1013.2
20260510083049 60 69 0.0 0.0 0.00 0.00 0.00 96 1013.1
20260510081601 60 69 0.0 0.0 0.00 0.00 0.00 95 1013.0
20260510080051 61 68 0.0 0.0 0.00 0.00 0.00 95 1013.0
20260510074547 61 68 0.0 0.0 0.00 0.00 0.00 95 1013.0
20260510073045 61 69 0.0 0.0 0.00 0.00 0.00 95 1012.8
20260510071544 61 68 0.0 0.0 0.00 0.00 0.00 95 1012.6
20260510070044 61 68 0.0 0.0 0.00 0.00 0.00 95 1012.6
20260510064543 61 68 0.0 0.0 0.00 0.00 0.00 95 1012.7
20260510063041 61 68 0.0 0.0 0.00 0.00 0.00 94 1012.8
20260510061539 61 68 0.0 0.0 0.00 0.00 0.00 94 1012.6
20260510060047 61 68 0.0 0.0 0.00 0.00 0.00 93 1012.8
20260510054536 62 69 0.0 0.0 0.00 0.00 0.00 93 1013.0
20260510053034 62 68 0.0 0.0 0.00 0.00 0.00 93 1013.0
20260510051536 62 68 0.0 0.0 0.00 0.00 0.00 93 1013.1
20260510050030 63 68 0.0 0.0 0.00 0.00 0.00 93 1013.3
20260510044531 63 69 0.0 0.0 0.00 0.00 0.00 93 1013.5
20260510043027 63 68 0.0 0.0 0.00 0.00 0.00 93 1013.4
20260510041530 63 69 0.0 0.0 0.00 0.00 0.00 93 1013.3
20260510040025 63 68 0.0 0.0 0.00 0.00 0.00 93 1013.4
20260510034524 63 69 0.0 0.0 0.00 0.00 0.00 94 1013.1
20260510033024 63 69 0.0 0.0 0.00 0.00 0.00 94 1013.0
20260510031629 63 69 0.0 0.0 0.00 0.00 0.00 94 1013.0
20260510030023 62 68 0.0 0.0 0.00 0.00 0.00 93 1012.9
20260510024521 63 69 0.0 0.0 0.00 0.00 0.00 92 1012.9
20260510023036 63 69 0.0 0.0 0.00 0.00 0.00 92 1012.7
20260510021521 63 68 0.0 0.0 0.00 0.00 0.00 92 1012.8
20260510020020 64 68 0.0 0.0 0.00 0.00 0.00 91 1012.6
20260510014521 64 68 0.0 0.0 0.00 0.00 0.00 90 1012.7
20260510013019 64 68 0.0 0.0 0.00 0.00 0.00 90 1012.4
20260510011524 65 68 0.0 0.0 0.00 0.00 0.00 89 1012.1
20260510010024 65 68 0.0 0.0 0.00 0.00 0.00 87 1011.9
20260510004518 66 68 0.0 0.0 0.00 0.00 0.00 87 1011.8
20260510003018 66 69 0.0 0.0 0.00 0.00 0.00 85 1011.8
20260510001518 67 69 0.0 0.0 0.00 0.00 0.00 84 1011.8
20260510000017 68 68 0.0 0.0 0.00 0.00 0.00 82 1011.7
20260509234519 69 68 0.0 0.0 0.00 0.00 0.00 80 1011.7
20260509233015 70 68 0.0 0.0 0.00 0.00 0.00 78 1011.3
20260509231515 71 69 0.0 0.0 0.00 0.00 0.00 77 1011.2
20260509230015 71 68 0.0 0.0 0.00 0.00 0.00 76 1011.0
20260509224513 72 68 0.0 0.0 0.00 0.00 0.00 75 1010.9
20260509223014 72 56 0.0 0.0 0.00 0.00 0.00 74 1010.9
20260509221512 72 68 0.0 0.0 0.00 0.00 0.00 75 1011.0
20260509220012 72 65 0.0 0.0 0.00 0.00 0.00 75 1011.1
20260509214511 72 130 0.0 0.0 0.00 0.00 0.00 74 1011.0
20260509213010 72 131 0.0 0.0 0.00 0.00 0.00 73 1010.9
20260509211513 73 140 0.0 0.0 0.00 0.00 0.00 72 1010.9
20260509210009 73 110 0.0 0.0 0.00 0.00 0.00 72 1010.8
20260509204508 72 66 0.0 0.0 0.00 0.00 0.00 74 1010.7
20260509203015 71 67 0.0 0.0 0.00 0.00 0.00 74 1010.8
20260509201505 71 74 0.0 0.0 0.00 0.00 0.00 75 1011.1
20260509200004 70 74 0.0 1.0 0.00 0.00 0.00 75 1011.2
20260509194502 70 70 0.0 1.0 0.00 0.00 0.00 75 1011.4
20260509193001 70 111 0.0 1.0 0.00 0.00 0.00 74 1011.6
20260509191601 70 112 0.0 0.0 0.00 0.00 0.00 73 1011.7
20260509190104 71 89 0.0 1.0 0.00 0.00 0.00 72 1011.8
20260509184559 71 168 0.0 0.0 0.00 0.00 0.00 70 1011.6
20260509183059 73 198 0.0 1.0 0.00 0.00 0.00 67 1011.6
20260509181608 73 118 0.0 2.0 0.00 0.00 0.00 66 1011.8
20260509180054 74 86 0.0 0.0 0.00 0.00 0.00 63 1012.1
20260509174553 73 116 0.0 1.0 0.00 0.00 0.00 64 1012.2